Terminal Aerodrome Forecast
Issued by NWS

Home | Current Version | Previous Version | Text Only | Print | Product List | Glossary On
Versions: 1 2 3 4 5 6 7 8 9 10 11 12
000
FTUS45 KABQ 302334
TAFROW
TAF
KROW 302334Z 0100/0124 09008KT P6SM SCT080 BKN120
     FM010300 05010KT P6SM SCT050 BKN080
     FM010600 03020G30KT P6SM BKN040 BKN080
     FM011200 36012G20KT 5SM BR OVC030
     FM011800 02012KT P6SM VCSH BKN040 BKN070=

USA.gov is the U.S. government's official web portal to all federal, state and local government web resources and services.